Home   Weather   Aswan   Past weeks
Flag for Egypt

Past Weather in Aswan, Egypt — Yesterday and Last 2 Weeks

Now
86 °F

Clear.


Feels Like: 83 °F
Forecast: 105 / 70 °F
Wind: 5 mph from Northwest

Location: Luxor Airport

Current Time: May 31, 2020 at 10:03:18 pm

Latest Report: May 31, 2020 at 9:00 pm


Visibility: 10 mi

Pressure: 29.80 "Hg

Humidity: 19%

Dew Point: 39 °F

Location of AswanLocation

Past Weather in Aswan — Graph

°F

Aswan Temperature Yesterday

Maximum temperature yesterday: 95 °F (at 3:00 pm)
Minimum temperature yesterday: 68 °F (at 5:00 am)
Average temperature yesterday: 82 °F

High & Low Weather Summary for the Past Weeks

 TemperatureHumidityPressure
High113 °F (May 22, 3:00 pm)53% (May 28, 5:00 am)29.95 "Hg (May 28, 5:00 am)
Low68 °F (May 30, 5:00 am)13% (May 26, 6:00 pm)29.62 "Hg (May 19, 9:00 pm)
Average90 °F29%29.80 "Hg
* Reported May 16 9:00 pm — May 31 8:00 pm, Aswan. Weather by CustomWeather, © 2020

Note: Actual official high and low records may vary slightly from our data, if they occured in-between our weather recording intervals... More about our weather records

Aswan Weather History for the Previous 24 Hours

Scroll right to see more
 ConditionsComfort  
Time TempWeatherWind HumidityBarometerVisibility
8:00 pm
Sun, May 31
88 °FClear.6 mph18%29.80 "Hg10 mi
7:00 pm91 °FClear.9 mph16%29.77 "Hg10 mi
6:00 pm95 °FSunny.7 mph16%29.74 "Hg10 mi
5:00 pm99 °FSunny.7 mph14%29.74 "Hg10 mi
4:00 pm99 °FSunny.7 mph14%29.74 "Hg10 mi
3:00 pm97 °FSunny.5 mph18%29.77 "Hg10 mi
2:00 pm95 °FSunny.9 mph19%29.80 "Hg10 mi
1:00 pm93 °FSunny.9 mph20%29.83 "Hg10 mi
12:00 pm90 °FSunny.7 mph22%29.83 "Hg10 mi
11:00 am88 °FSunny.7 mph22%29.86 "Hg10 mi
10:00 am84 °FSunny.9 mph27%29.89 "Hg10 mi
9:00 am82 °FSunny.9 mph28%29.89 "Hg10 mi
8:00 am79 °FSunny.9 mph23%29.92 "Hg10 mi
7:00 am75 °FSunny.7 mph39%29.89 "Hg10 mi
6:00 am70 °FSunny.6 mph43%29.89 "Hg10 mi
5:00 am70 °FSunny.5 mph43%29.89 "Hg10 mi
4:00 am70 °FClear.5 mph46%29.86 "Hg10 mi
3:00 am72 °FClear.5 mph41%29.86 "Hg10 mi
2:00 am73 °FClear.No wind38%29.86 "Hg10 mi
1:00 am75 °FClear.5 mph31%29.86 "Hg10 mi
12:00 am77 °FClear.5 mph32%29.86 "Hg10 mi
11:00 pm
Sat, May 30
79 °FClear.5 mph30%29.89 "Hg10 mi
10:00 pm81 °FClear.7 mph26%29.89 "Hg10 mi
Weather by CustomWeather, © 2020

See weather overview

Advertising